Weather History for Savannah, GA

Change the Weather History Date:

Thursday, January 17, 2013

  Actual Average Record
Temperature  
Mean Temperature 61 °F 49 °F  
Max Temperature 79 °F 60 °F 81 °F (1943)
Min Temperature 42 °F 38 °F 16 °F (1977)
Degree Days  
Heating Degree Days 4 16  
Month to date heating degree days 108 272  
Since 1 July heating degree days 727 962  
Cooling Degree Days 0 0  
Month to date cooling degree days 24 0  
Year to date cooling degree days 24 0  
Growing Degree Days 11 (Base 50)    
Moisture  
Dew Point 52 °F    
Average Humidity 73    
Maximum Humidity 93    
Minimum Humidity 52    
Precipitation  
Precipitation 0.05 in 0.13 in 0.96 in (1964)
Month to date precipitation 0.29 1.93  
Year to date precipitation 0.29 1.93  
Snow  
Snow 0.00 in 0.00 in - ()
Month to date snowfall 0.0  
Since 1 July snowfall 0.0 0.2  
Snow Depth 0.00 in    
Sea Level Pressure  
Sea Level Pressure 29.93 in    
Wind  
Wind Speed 12 mph (SW)    
Max Wind Speed 31 mph    
Max Gust Speed 40 mph    
Visibility 8 miles    
Events Rain    
T = Trace of Precipitation, MM = Missing Value Source: NWS Daily Summary

Daily Weather History Graph

Daily Weather History Graph

Search for Another Location

Airport:

Trip Planner

Search our weather history database for the weather conditions in past years. The results will help you decide how hot, cold, wet, or windy it might be!

Date:

Astronomy

Jan. 17, 2013 Rise Set
Actual Time 7:25 AM EST 5:44 PM EST
Civil Twilight 6:59 AM EST 6:11 PM EST
Nautical Twilight 6:29 AM EST 6:41 PM EST
Astronomical Twilight 5:59 AM EST 7:10 PM EST
Moon 10:57 AM EST (1/17) No Moon Set
Length of Visible Light 11h 12m
Length of Day
10h 19m
Waxing Crescent, 37% of the Moon is Illuminated
Jan 17
Waxing Crescent
Jan 18
First Quarter
Jan 26
Full
Feb 3
Last Quarter
Feb 10
New

Hourly Weather History & Observations

Time (EST) Temp. Windchill Dew Point Humidity Pressure Visibility Wind Dir Wind Speed Gust Speed Precip Events Conditions
1:53 AM 61.0 °F - 57.9 °F 90% 30.00 in 10.0 mi South 4.6 mph - N/A   Clear
2:53 AM 60.1 °F - 57.0 °F 90% 29.99 in 10.0 mi South 6.9 mph - N/A   Clear
3:53 AM 60.8 °F - 57.2 °F 88% 30.26 in 10.0 mi South 6.9 mph - N/A   Clear
4:53 AM 59.0 °F - 57.0 °F 93% 29.96 in 10.0 mi South 6.9 mph - N/A   Clear
5:53 AM 59.0 °F - 57.0 °F 93% 29.96 in 10.0 mi South 8.1 mph - N/A   Clear
6:53 AM 59.0 °F - 57.0 °F 93% 29.96 in 10.0 mi South 5.8 mph - N/A   Partly Cloudy
7:53 AM 60.1 °F - 57.0 °F 90% 29.96 in 10.0 mi SSE 5.8 mph - N/A   Scattered Clouds
8:53 AM 66.0 °F - 60.1 °F 81% 29.96 in 10.0 mi South 8.1 mph - N/A   Scattered Clouds
9:53 AM 71.1 °F - 60.1 °F 68% 29.94 in 10.0 mi South 11.5 mph - N/A   Scattered Clouds
10:53 AM 75.0 °F - 60.1 °F 60% 29.91 in 10.0 mi SSW 12.7 mph 20.7 mph N/A   Scattered Clouds
11:53 AM 75.9 °F - 60.1 °F 58% 29.86 in 10.0 mi SSW 15.0 mph 26.5 mph N/A   Mostly Cloudy
12:53 PM 78.1 °F - 59.0 °F 52% 29.80 in 10.0 mi South 19.6 mph 25.3 mph N/A   Mostly Cloudy
1:53 PM 73.9 °F - 60.1 °F 62% 29.77 in 10.0 mi South 18.4 mph 31.1 mph N/A   Overcast
2:12 PM 62.6 °F - 60.8 °F 94% 29.81 in 2.0 mi WSW 24.2 mph 40.3 mph 0.00 in Rain Rain
2:19 PM 62.6 °F - 60.8 °F 94% 29.81 in 2.0 mi West 19.6 mph 31.1 mph 0.02 in Rain Rain
2:31 PM 59.0 °F - 55.4 °F 88% 29.83 in 2.5 mi West 28.8 mph 38.0 mph 0.02 in Rain Light Rain
2:41 PM 57.2 °F - 55.4 °F 94% 29.83 in 8.0 mi WSW 23.0 mph 35.7 mph 0.02 in Rain Light Rain
2:53 PM 57.9 °F - 55.0 °F 90% 29.84 in 6.0 mi WSW 16.1 mph 27.6 mph 0.02 in   Overcast
3:04 PM 55.4 °F - 53.6 °F 94% 29.84 in 2.0 mi West 20.7 mph 26.5 mph 0.00 in Rain Light Rain
3:29 PM 55.4 °F - 51.8 °F 88% 29.86 in 2.0 mi West 20.7 mph 33.4 mph 0.00 in Rain Light Rain
3:36 PM 55.4 °F - 51.8 °F 88% 29.87 in 6.0 mi West 25.3 mph 33.4 mph 0.00 in Rain Light Rain
3:53 PM 53.1 °F - 50.0 °F 89% 29.88 in 1.8 mi WSW 24.2 mph 29.9 mph 0.00 in Rain Rain
4:02 PM 51.8 °F - 48.2 °F 88% 29.89 in 3.0 mi West 25.3 mph 35.7 mph 0.02 in Rain Light Rain
4:10 PM 51.8 °F - 48.2 °F 88% 29.89 in 4.0 mi WSW 18.4 mph 31.1 mph 0.02 in Rain Light Rain
4:53 PM 52.0 °F - 46.0 °F 80% 29.89 in 10.0 mi WSW 11.5 mph - 0.03 in   Mostly Cloudy
5:53 PM 50.0 °F - 45.0 °F 83% 29.91 in 10.0 mi WSW 8.1 mph - N/A   Scattered Clouds
6:53 PM 51.1 °F - 45.0 °F 80% 29.95 in 10.0 mi West 15.0 mph 21.9 mph N/A   Overcast
7:53 PM 46.0 °F 38.3 °F 36.0 °F 68% 30.01 in 10.0 mi West 20.7 mph - N/A   Partly Cloudy
8:53 PM 46.9 °F - 35.1 °F 63% 30.06 in 10.0 mi West 18.4 mph 25.3 mph N/A   Overcast
9:53 PM 46.0 °F 38.8 °F 34.0 °F 63% 30.09 in 10.0 mi WNW 18.4 mph 27.6 mph N/A   Overcast
10:53 PM 43.0 °F 34.5 °F 32.0 °F 65% 30.12 in 10.0 mi WNW 19.6 mph 23.0 mph N/A   Partly Cloudy
11:53 PM 43.0 °F 36.8 °F 33.1 °F 68% 30.12 in 10.0 mi WNW 11.5 mph - N/A   Overcast